| time (UTC) | temp C | wind direction | speed KPH | gust KPH | rain 1hr cm | rain 24hr cm | rain mn cm | humidity % | barometer mb |
| 20260506081106 | 12 | 183 | 3.2 | 4.8 | 0.00 | 0.00 | 0.00 | 77 | 1010.3 |
| 20260506080604 | 12 | 229 | 1.6 | 4.8 | 0.00 | 0.00 | 0.00 | 77 | 1009.8 |
| 20260506073044 | 13 | 65 | 3.2 | 6.4 | 0.00 | 0.00 | 0.00 | 77 | 1009.6 |
| 20260506072541 | 12 | 143 | 3.2 | 6.4 | 0.00 | 0.00 | 0.00 | 77 | 1009.8 |
| 20260506072039 | 13 | 146 | 3.2 | 4.8 | 0.00 | 0.00 | 0.00 | 77 | 1009.8 |
| 20260506071537 | 13 | 144 | 1.6 | 3.2 | 0.00 | 0.00 | 0.00 | 77 | 1009.5 |
| 20260506071034 | 13 | 330 | 3.2 | 4.8 | 0.00 | 0.00 | 0.00 | 77 | 1009.8 |
| 20260506070531 | 13 | 307 | 3.2 | 6.4 | 0.00 | 0.00 | 0.00 | 77 | 1009.8 |
| 20260506062508 | 13 | 190 | 1.6 | 9.7 | 0.00 | 0.00 | 0.00 | 77 | 1010.1 |
| 20260506062005 | 13 | 336 | 6.4 | 9.7 | 0.00 | 0.00 | 0.00 | 77 | 1009.9 |
| 20260506061501 | 13 | 222 | 1.6 | 4.8 | 0.00 | 0.00 | 0.00 | 77 | 1010.0 |
| 20260506060958 | 13 | 170 | 1.6 | 6.4 | 0.00 | 0.00 | 0.00 | 77 | 1010.1 |
| 20260506060457 | 13 | 135 | 3.2 | 4.8 | 0.00 | 0.00 | 0.00 | 77 | 1010.0 |
| 20260506050925 | 14 | 198 | 1.6 | 4.8 | 0.00 | 0.00 | 0.00 | 80 | 1010.1 |
| 20260506050423 | 14 | 271 | 1.6 | 3.2 | 0.00 | 0.00 | 0.00 | 80 | 1009.8 |
| 20260506044914 | 14 | 111 | 3.2 | 4.8 | 0.00 | 0.00 | 0.00 | 80 | 1009.9 |
| 20260506044412 | 14 | 42 | 3.2 | 6.4 | 0.00 | 0.00 | 0.00 | 80 | 1009.6 |
| 20260506043909 | 14 | 320 | 3.2 | 4.8 | 0.00 | 0.00 | 0.00 | 80 | 1009.8 |
| 20260506043406 | 14 | 135 | 4.8 | 9.7 | 0.00 | 0.00 | 0.00 | 80 | 1009.5 |
| 20260506042904 | 15 | 143 | 1.6 | 6.4 | 0.00 | 0.00 | 0.00 | 80 | 1009.6 |
| 20260506042403 | 15 | 156 | 4.8 | 9.7 | 0.00 | 0.00 | 0.00 | 80 | 1009.8 |
| 20260506041900 | 15 | 274 | 4.8 | 9.7 | 0.00 | 0.00 | 0.00 | 80 | 1009.6 |
| 20260506041357 | 15 | 191 | 1.6 | 4.8 | 0.00 | 0.00 | 0.00 | 81 | 1009.6 |
| 20260506040855 | 15 | 79 | 3.2 | 6.4 | 0.00 | 0.00 | 0.00 | 81 | 1009.4 |
| 20260506040352 | 15 | 58 | 3.2 | 3.2 | 0.00 | 0.00 | 0.00 | 81 | 1009.4 |
| 20260506035848 | 16 | 231 | 3.2 | 4.8 | 0.00 | 0.00 | 0.00 | 80 | 1009.4 |
| 20260506035346 | 16 | 108 | 1.6 | 4.8 | 0.00 | 0.00 | 0.00 | 81 | 1009.3 |
| 20260506034843 | 16 | 263 | 1.6 | 4.8 | 0.00 | 0.00 | 0.00 | 80 | 1009.3 |
| 20260506034340 | 16 | 170 | 3.2 | 3.2 | 0.00 | 0.00 | 0.00 | 81 | 1009.4 |
| 20260506033836 | 16 | 147 | 1.6 | 6.4 | 0.00 | 0.00 | 0.00 | 81 | 1009.4 |
| 20260506033334 | 16 | 354 | 1.6 | 4.8 | 0.00 | 0.00 | 0.00 | 80 | 1009.2 |
| 20260506032830 | 16 | 289 | 1.6 | 11.3 | 0.00 | 0.00 | 0.00 | 81 | 1009.1 |
| 20260506032327 | 16 | 147 | 3.2 | 6.4 | 0.00 | 0.00 | 0.00 | 81 | 1009.3 |
| 20260506031825 | 16 | 234 | 3.2 | 4.8 | 0.00 | 0.00 | 0.00 | 80 | 1009.0 |
| 20260506031322 | 16 | 4 | 0.0 | 4.8 | 0.00 | 0.00 | 0.00 | 81 | 1009.0 |
| 20260506030819 | 16 | 253 | 3.2 | 6.4 | 0.00 | 0.00 | 0.00 | 81 | 1008.8 |
| 20260506030317 | 16 | 165 | 1.6 | 9.7 | 0.00 | 0.00 | 0.00 | 80 | 1008.8 |
| 20260506025814 | 16 | 164 | 1.6 | 6.4 | 0.00 | 0.00 | 0.00 | 80 | 1008.7 |
| 20260506025310 | 17 | 326 | 1.6 | 4.8 | 0.00 | 0.00 | 0.00 | 80 | 1008.5 |
| 20260506024807 | 17 | 178 | 3.2 | 11.3 | 0.00 | 0.00 | 0.00 | 80 | 1008.5 |
| 20260506024304 | 17 | 222 | 3.2 | 11.3 | 0.00 | 0.00 | 0.00 | 80 | 1008.3 |
| 20260506023800 | 17 | 99 | 0.0 | 3.2 | 0.00 | 0.00 | 0.00 | 81 | 1008.0 |
| 20260506023257 | 17 | 86 | 0.0 | 6.4 | 0.00 | 0.00 | 0.00 | 81 | 1007.9 |
| 20260506022753 | 17 | 77 | 3.2 | 11.3 | 0.00 | 0.00 | 0.00 | 80 | 1007.5 |
| 20260506022252 | 17 | 219 | 1.6 | 6.4 | 0.00 | 0.00 | 0.00 | 80 | 1007.7 |
| 20260506021749 | 18 | 245 | 3.2 | 4.8 | 0.00 | 0.00 | 0.00 | 80 | 1007.3 |
| 20260506021246 | 18 | 224 | 3.2 | 3.2 | 0.00 | 0.00 | 0.00 | 80 | 1007.4 |
| 20260506020743 | 18 | 321 | 3.2 | 4.8 | 0.00 | 0.00 | 0.00 | 79 | 1007.3 |
| 20260506020241 | 18 | 1 | 1.6 | 4.8 | 0.00 | 0.00 | 0.00 | 79 | 1007.2 |
| 20260506015738 | 19 | 251 | 4.8 | 9.7 | 0.00 | 0.00 | 0.00 | 79 | 1006.9 |
| 20260506015235 | 19 | 148 | 1.6 | 12.9 | 0.00 | 0.00 | 0.00 | 79 | 1007.0 |
| 20260506014732 | 19 | 293 | 3.2 | 4.8 | 0.00 | 0.00 | 0.00 | 78 | 1007.1 |
| 20260506014228 | 19 | 196 | 0.0 | 3.2 | 0.00 | 0.00 | 0.00 | 78 | 1006.8 |
| 20260506013726 | 19 | 322 | 0.0 | 3.2 | 0.00 | 0.00 | 0.00 | 78 | 1006.8 |
| 20260506013223 | 19 | 42 | 0.0 | 4.8 | 0.00 | 0.00 | 0.00 | 78 | 1006.8 |
| 20260506012719 | 20 | 136 | 1.6 | 3.2 | 0.00 | 0.00 | 0.00 | 77 | 1006.5 |
| 20260506012216 | 20 | 222 | 0.0 | 4.8 | 0.00 | 0.00 | 0.00 | 77 | 1006.7 |
| 20260506011714 | 20 | 182 | 0.0 | 4.8 | 0.00 | 0.00 | 0.00 | 77 | 1006.3 |
| 20260506011210 | 20 | 118 | 3.2 | 4.8 | 0.00 | 0.00 | 0.00 | 76 | 1006.3 |
| 20260506010708 | 20 | 218 | 3.2 | 6.4 | 0.00 | 0.00 | 0.00 | 76 | 1006.5 |
| 20260506010205 | 20 | 214 | 1.6 | 11.3 | 0.00 | 0.00 | 0.00 | 76 | 1006.1 |
| 20260506005702 | 21 | 268 | 0.0 | 3.2 | 0.00 | 0.00 | 0.00 | 76 | 1006.4 |
| 20260506005159 | 21 | 299 | 0.0 | 3.2 | 0.00 | 0.00 | 0.00 | 76 | 1006.0 |
| 20260506004655 | 21 | 192 | 1.6 | 3.2 | 0.00 | 0.00 | 0.00 | 75 | 1005.9 |
| 20260506004152 | 21 | 333 | 1.6 | 6.4 | 0.00 | 0.00 | 0.00 | 75 | 1005.9 |
| 20260506003648 | 22 | 217 | 1.6 | 4.8 | 0.00 | 0.00 | 0.00 | 74 | 1005.7 |
| 20260506003145 | 22 | 224 | 1.6 | 4.8 | 0.00 | 0.00 | 0.00 | 74 | 1005.6 |
| 20260506002641 | 22 | 215 | 1.6 | 3.2 | 0.00 | 0.00 | 0.00 | 74 | 1005.6 |
| 20260506002137 | 22 | 168 | 1.6 | 4.8 | 0.00 | 0.00 | 0.00 | 74 | 1005.4 |
| 20260506001633 | 22 | 350 | 6.4 | 11.3 | 0.00 | 0.00 | 0.00 | 72 | 1005.5 |
| 20260506001131 | 23 | 307 | 1.6 | 6.4 | 0.00 | 0.00 | 0.00 | 71 | 1005.3 |
| 20260506000628 | 23 | 353 | 1.6 | 4.8 | 0.00 | 0.00 | 0.00 | 71 | 1005.4 |
| 20260506000125 | 23 | 239 | 1.6 | 4.8 | 0.00 | 0.00 | 0.00 | 71 | 1005.6 |
| 20260505235623 | 23 | 4 | 6.4 | 12.9 | 0.00 | 0.00 | 0.00 | 70 | 1005.7 |
| 20260505235120 | 23 | 289 | 3.2 | 14.5 | 0.00 | 0.00 | 0.00 | 69 | 1005.4 |
| 20260505234617 | 24 | 312 | 1.6 | 11.3 | 0.00 | 0.00 | 0.00 | 69 | 1004.9 |
| 20260505234113 | 24 | 144 | 3.2 | 9.7 | 0.00 | 0.00 | 0.00 | 69 | 1004.9 |
| 20260505233611 | 24 | 261 | 1.6 | 6.4 | 0.00 | 0.00 | 0.00 | 69 | 1005.1 |
| 20260505233108 | 24 | 269 | 8.0 | 17.7 | 0.00 | 0.00 | 0.00 | 68 | 1005.3 |
| 20260505232606 | 24 | 256 | 8.0 | 11.3 | 0.00 | 0.00 | 0.00 | 67 | 1005.5 |
| 20260505232103 | 25 | 199 | 3.2 | 16.1 | 0.00 | 0.00 | 0.00 | 67 | 1005.3 |
| 20260505231600 | 25 | 310 | 3.2 | 11.3 | 0.00 | 0.00 | 0.00 | 66 | 1005.0 |
| 20260505231059 | 26 | 71 | 3.2 | 14.5 | 0.00 | 0.00 | 0.00 | 65 | 1005.0 |
| 20260505230556 | 26 | 235 | 6.4 | 14.5 | 0.00 | 0.00 | 0.00 | 62 | 1004.9 |
| 20260505230052 | 26 | 306 | 4.8 | 12.9 | 0.00 | 0.00 | 0.00 | 61 | 1004.5 |
| 20260505225549 | 27 | 292 | 4.8 | 11.3 | 0.00 | 0.00 | 0.00 | 60 | 1004.6 |
| 20260505225045 | 27 | 337 | 4.8 | 11.3 | 0.00 | 0.00 | 0.00 | 59 | 1004.8 |
| 20260505224542 | 27 | 198 | 3.2 | 12.9 | 0.00 | 0.00 | 0.00 | 58 | 1004.6 |
| 20260505224040 | 28 | 193 | 9.7 | 12.9 | 0.00 | 0.00 | 0.00 | 55 | 1004.4 |
| 20260505223537 | 28 | 58 | 3.2 | 11.3 | 0.00 | 0.00 | 0.00 | 53 | 1004.4 |
| 20260505223033 | 29 | 128 | 3.2 | 6.4 | 0.00 | 0.00 | 0.00 | 52 | 1004.4 |
| 20260505222529 | 29 | 354 | 6.4 | 6.4 | 0.00 | 0.00 | 0.00 | 51 | 1004.1 |
| 20260505222025 | 30 | 341 | 1.6 | 4.8 | 0.00 | 0.00 | 0.00 | 50 | 1004.0 |
| 20260505221523 | 30 | 59 | 4.8 | 9.7 | 0.00 | 0.00 | 0.00 | 50 | 1003.9 |
| 20260505221019 | 30 | 267 | 4.8 | 9.7 | 0.00 | 0.00 | 0.00 | 50 | 1003.8 |
| 20260505220516 | 30 | 0 | 4.8 | 9.7 | 0.00 | 0.00 | 0.00 | 50 | 1003.5 |
| 20260505220014 | 29 | 69 | 4.8 | 6.4 | 0.00 | 0.00 | 0.00 | 51 | 1003.8 |
| 20260505215512 | 30 | 315 | 6.4 | 14.5 | 0.00 | 0.00 | 0.00 | 51 | 1003.7 |
| 20260505215009 | 30 | 255 | 3.2 | 12.9 | 0.00 | 0.00 | 0.00 | 53 | 1003.9 |
| 20260505214508 | 30 | 156 | 8.0 | 17.7 | 0.00 | 0.00 | 0.00 | 54 | 1003.8 |
| 20260505214004 | 30 | 9 | 8.0 | 12.9 | 0.00 | 0.00 | 0.00 | 57 | 1003.9 |
| 20260505213502 | 31 | 175 | 6.4 | 20.9 | 0.00 | 0.00 | 0.00 | 57 | 1003.8 |
| 20260505212958 | 31 | 256 | 9.7 | 12.9 | 0.00 | 0.00 | 0.00 | 55 | 1003.9 |
| 20260505212455 | 31 | 236 | 11.3 | 16.1 | 0.00 | 0.00 | 0.00 | 56 | 1003.9 |
| 20260505211951 | 31 | 264 | 8.0 | 14.5 | 0.00 | 0.00 | 0.00 | 57 | 1004.1 |
| 20260505211449 | 31 | 224 | 6.4 | 11.3 | 0.00 | 0.00 | 0.00 | 58 | 1004.1 |
| 20260505210945 | 31 | 202 | 3.2 | 12.9 | 0.00 | 0.00 | 0.00 | 57 | 1004.3 |
| 20260505210442 | 31 | 255 | 11.3 | 17.7 | 0.00 | 0.00 | 0.00 | 57 | 1004.3 |
| 20260505205939 | 31 | 267 | 4.8 | 11.3 | 0.00 | 0.00 | 0.00 | 58 | 1004.1 |
| 20260505205438 | 30 | 20 | 6.4 | 14.5 | 0.00 | 0.00 | 0.00 | 59 | 1004.4 |
| 20260505204933 | 30 | 288 | 8.0 | 14.5 | 0.00 | 0.00 | 0.00 | 60 | 1004.1 |
| 20260505204432 | 30 | 315 | 8.0 | 12.9 | 0.00 | 0.00 | 0.00 | 59 | 1004.4 |
| 20260505203929 | 30 | 289 | 6.4 | 24.1 | 0.00 | 0.00 | 0.00 | 59 | 1004.0 |
| 20260505203425 | 30 | 315 | 8.0 | 14.5 | 0.00 | 0.00 | 0.00 | 60 | 1004.3 |
| 20260505202921 | 31 | 298 | 6.4 | 14.5 | 0.00 | 0.00 | 0.00 | 59 | 1004.4 |
| 20260505202418 | 30 | 287 | 6.4 | 16.1 | 0.00 | 0.00 | 0.00 | 61 | 1004.5 |
| 20260505201914 | 30 | 323 | 8.0 | 16.1 | 0.00 | 0.00 | 0.00 | 60 | 1004.5 |
| 20260505201411 | 30 | 180 | 9.7 | 16.1 | 0.00 | 0.00 | 0.00 | 60 | 1004.7 |
| 20260505200910 | 30 | 275 | 11.3 | 12.9 | 0.00 | 0.00 | 0.00 | 60 | 1004.5 |
| 20260505200407 | 29 | 245 | 8.0 | 22.5 | 0.00 | 0.00 | 0.00 | 60 | 1004.7 |
| 20260505195902 | 30 | 311 | 6.4 | 17.7 | 0.00 | 0.00 | 0.00 | 60 | 1004.5 |
| 20260505195359 | 30 | 275 | 4.8 | 12.9 | 0.00 | 0.00 | 0.00 | 59 | 1004.6 |
| 20260505194856 | 30 | 340 | 6.4 | 12.9 | 0.00 | 0.00 | 0.00 | 58 | 1004.5 |
| 20260505194354 | 30 | 320 | 3.2 | 22.5 | 0.00 | 0.00 | 0.00 | 60 | 1004.6 |
| 20260505193854 | 30 | 171 | 9.7 | 14.5 | 0.00 | 0.00 | 0.00 | 58 | 1004.6 |
| 20260505193353 | 30 | 255 | 6.4 | 14.5 | 0.00 | 0.00 | 0.00 | 59 | 1004.7 |
| 20260505192850 | 29 | 70 | 9.7 | 16.1 | 0.00 | 0.00 | 0.00 | 58 | 1004.6 |
| 20260505192348 | 30 | 195 | 12.9 | 14.5 | 0.00 | 0.00 | 0.00 | 55 | 1004.7 |
| 20260505191845 | 30 | 271 | 3.2 | 11.3 | 0.00 | 0.00 | 0.00 | 58 | 1004.6 |
| 20260505191344 | 30 | 219 | 11.3 | 16.1 | 0.00 | 0.00 | 0.00 | 57 | 1004.2 |
| 20260505190840 | 29 | 344 | 8.0 | 16.1 | 0.00 | 0.00 | 0.00 | 58 | 1004.3 |
| 20260505190336 | 30 | 290 | 6.4 | 14.5 | 0.00 | 0.00 | 0.00 | 60 | 1004.4 |
| 20260505185831 | 29 | 324 | 8.0 | 20.9 | 0.00 | 0.00 | 0.00 | 60 | 1004.3 |
| 20260505185328 | 29 | 222 | 8.0 | 22.5 | 0.00 | 0.00 | 0.00 | 60 | 1004.5 |
| 20260505184824 | 28 | 306 | 6.4 | 14.5 | 0.00 | 0.00 | 0.00 | 61 | 1004.5 |
| 20260505184321 | 28 | 301 | 14.5 | 20.9 | 0.00 | 0.00 | 0.00 | 61 | 1004.4 |
| 20260505183818 | 28 | 4 | 9.7 | 14.5 | 0.00 | 0.00 | 0.00 | 62 | 1004.6 |
| 20260505183315 | 28 | 34 | 6.4 | 17.7 | 0.00 | 0.00 | 0.00 | 62 | 1004.6 |
| 20260505182812 | 28 | 318 | 6.4 | 14.5 | 0.00 | 0.00 | 0.00 | 63 | 1004.4 |
| 20260505182309 | 28 | 233 | 9.7 | 20.9 | 0.00 | 0.00 | 0.00 | 63 | 1004.6 |
| 20260505181805 | 28 | 142 | 8.0 | 16.1 | 0.00 | 0.00 | 0.00 | 64 | 1004.7 |
| 20260505181303 | 28 | 334 | 9.7 | 12.9 | 0.00 | 0.00 | 0.00 | 64 | 1004.6 |
| 20260505180759 | 28 | 330 | 11.3 | 20.9 | 0.00 | 0.00 | 0.00 | 63 | 1004.6 |
| 20260505180256 | 28 | 347 | 6.4 | 17.7 | 0.00 | 0.00 | 0.00 | 64 | 1004.6 |
| 20260505175752 | 29 | 346 | 1.6 | 12.9 | 0.00 | 0.00 | 0.00 | 64 | 1004.5 |
| 20260505175249 | 28 | 305 | 9.7 | 17.7 | 0.00 | 0.00 | 0.00 | 67 | 1004.7 |
| 20260505174745 | 28 | 345 | 6.4 | 14.5 | 0.00 | 0.00 | 0.00 | 68 | 1004.6 |
| 20260505174243 | 28 | 259 | 3.2 | 12.9 | 0.00 | 0.00 | 0.00 | 67 | 1004.6 |
| 20260505173738 | 27 | 19 | 3.2 | 22.5 | 0.00 | 0.00 | 0.00 | 68 | 1004.5 |
| 20260505173235 | 27 | 53 | 6.4 | 22.5 | 0.00 | 0.00 | 0.00 | 68 | 1004.4 |
| 20260505172732 | 27 | 250 | 9.7 | 20.9 | 0.00 | 0.00 | 0.00 | 69 | 1004.5 |
| 20260505172229 | 27 | 276 | 4.8 | 11.3 | 0.00 | 0.00 | 0.00 | 69 | 1004.6 |
| 20260505171729 | 27 | 281 | 4.8 | 11.3 | 0.00 | 0.00 | 0.00 | 72 | 1004.3 |
| 20260505171226 | 26 | 358 | 12.9 | 20.9 | 0.00 | 0.00 | 0.00 | 73 | 1004.6 |
| 20260505170723 | 25 | 213 | 6.4 | 16.1 | 0.00 | 0.00 | 0.00 | 74 | 1004.6 |
| 20260505170220 | 25 | 40 | 1.6 | 14.5 | 0.00 | 0.00 | 0.00 | 75 | 1004.8 |
| 20260505165715 | 25 | 163 | 9.7 | 14.5 | 0.00 | 0.00 | 0.00 | 75 | 1004.4 |
| 20260505165212 | 25 | 333 | 1.6 | 12.9 | 0.00 | 0.00 | 0.00 | 75 | 1004.7 |
| 20260505164707 | 25 | 212 | 8.0 | 11.3 | 0.00 | 0.00 | 0.00 | 75 | 1004.4 |
| 20260505164204 | 25 | 25 | 8.0 | 12.9 | 0.00 | 0.00 | 0.00 | 75 | 1004.2 |
| 20260505163702 | 25 | 271 | 9.7 | 14.5 | 0.00 | 0.00 | 0.00 | 75 | 1005.2 |
| 20260505163201 | 25 | 238 | 6.4 | 16.1 | 0.00 | 0.00 | 0.00 | 75 | 1004.5 |
| 20260505162658 | 25 | 272 | 4.8 | 16.1 | 0.00 | 0.00 | 0.00 | 75 | 1004.4 |
| 20260505162155 | 25 | 354 | 6.4 | 14.5 | 0.00 | 0.00 | 0.00 | 75 | 1005.0 |
| 20260505161652 | 25 | 158 | 12.9 | 20.9 | 0.00 | 0.00 | 0.00 | 74 | 1004.6 |
| 20260505161149 | 25 | 312 | 6.4 | 20.9 | 0.00 | 0.00 | 0.00 | 74 | 1004.3 |
| 20260505160647 | 25 | 277 | 8.0 | 25.7 | 0.00 | 0.00 | 0.00 | 73 | 1004.5 |
| 20260505160144 | 25 | 239 | 6.4 | 16.1 | 0.00 | 0.00 | 0.00 | 74 | 1004.3 |
| 20260505153124 | 25 | 351 | 14.5 | 22.5 | 0.00 | 0.00 | 0.00 | 76 | 1004.1 |
| 20260505152620 | 24 | 334 | 6.4 | 22.5 | 0.00 | 0.00 | 0.00 | 76 | 1004.3 |
| 20260505152116 | 25 | 220 | 11.3 | 14.5 | 0.00 | 0.00 | 0.00 | 75 | 1004.2 |
| 20260505151611 | 25 | 279 | 6.4 | 22.5 | 0.00 | 0.00 | 0.00 | 76 | 1004.3 |
| 20260505151109 | 24 | 276 | 12.9 | 14.5 | 0.00 | 0.00 | 0.00 | 76 | 1004.5 |
| 20260505150605 | 24 | 234 | 12.9 | 17.7 | 0.00 | 0.00 | 0.00 | 77 | 1004.6 |
| 20260505140530 | 23 | 278 | 6.4 | 22.5 | 0.00 | 0.00 | 0.00 | 80 | 1004.3 |
| 20260505124943 | 22 | 255 | 3.2 | 16.1 | 0.00 | 0.00 | 0.00 | 83 | 1004.2 |
| 20260505124440 | 22 | 253 | 6.4 | 16.1 | 0.00 | 0.00 | 0.00 | 83 | 1003.9 |
| 20260505123937 | 22 | 88 | 6.4 | 20.9 | 0.00 | 0.00 | 0.00 | 83 | 1003.7 |
| 20260505123433 | 22 | 333 | 3.2 | 16.1 | 0.00 | 0.00 | 0.00 | 83 | 1003.7 |
| 20260505122929 | 22 | 346 | 6.4 | 14.5 | 0.00 | 0.00 | 0.00 | 84 | 1003.6 |
| 20260505122427 | 22 | 260 | 9.7 | 17.7 | 0.00 | 0.00 | 0.00 | 84 | 1003.9 |
| 20260505121923 | 22 | 317 | 4.8 | 16.1 | 0.00 | 0.00 | 0.00 | 84 | 1003.8 |
| 20260505121421 | 21 | 270 | 6.4 | 16.1 | 0.00 | 0.00 | 0.00 | 85 | 1003.7 |
| 20260505120916 | 21 | 319 | 3.2 | 12.9 | 0.00 | 0.00 | 0.00 | 85 | 1003.6 |
| 20260505120413 | 21 | 8 | 6.4 | 12.9 | 0.00 | 0.00 | 0.00 | 86 | 1003.6 |
| 20260505115912 | 21 | 257 | 3.2 | 9.7 | 0.00 | 0.00 | 0.00 | 86 | 1003.6 |
| 20260505115409 | 21 | 124 | 6.4 | 9.7 | 0.00 | 0.00 | 0.00 | 86 | 1003.8 |
| 20260505114907 | 21 | 230 | 9.7 | 16.1 | 0.00 | 0.00 | 0.00 | 86 | 1003.6 |
| 20260505114403 | 21 | 167 | 6.4 | 16.1 | 0.00 | 0.00 | 0.00 | 85 | 1003.6 |
| 20260505113859 | 21 | 150 | 3.2 | 14.5 | 0.00 | 0.00 | 0.00 | 85 | 1003.3 |
| 20260505113356 | 21 | 314 | 0.0 | 11.3 | 0.00 | 0.00 | 0.00 | 85 | 1003.5 |
| 20260505112851 | 21 | 322 | 1.6 | 12.9 | 0.00 | 0.00 | 0.00 | 85 | 1003.6 |
| 20260505112349 | 21 | 311 | 4.8 | 12.9 | 0.00 | 0.00 | 0.00 | 85 | 1003.5 |
| 20260505111845 | 21 | 142 | 3.2 | 20.9 | 0.00 | 0.00 | 0.00 | 85 | 1003.3 |
| 20260505111340 | 21 | 41 | 4.8 | 11.3 | 0.00 | 0.00 | 0.00 | 85 | 1003.3 |
| 20260505110836 | 21 | 2 | 4.8 | 9.7 | 0.00 | 0.00 | 0.00 | 85 | 1003.6 |
| 20260505110334 | 21 | 43 | 6.4 | 12.9 | 0.00 | 0.00 | 0.00 | 85 | 1003.3 |
| 20260505101809 | 21 | 296 | 1.6 | 6.4 | 0.00 | 0.00 | 0.00 | 85 | 1003.7 |
| 20260505101304 | 21 | 336 | 6.4 | 12.9 | 0.00 | 0.00 | 0.00 | 85 | 1003.7 |
| 20260505100800 | 21 | 289 | 4.8 | 12.9 | 0.00 | 0.00 | 0.00 | 85 | 1003.7 |
| 20260505100257 | 21 | 222 | 3.2 | 17.7 | 0.00 | 0.00 | 0.00 | 85 | 1003.7 |
| 20260505095753 | 21 | 301 | 4.8 | 12.9 | 0.00 | 0.00 | 0.00 | 86 | 1003.3 |
| 20260505095251 | 21 | 224 | 8.0 | 20.9 | 0.00 | 0.00 | 0.00 | 86 | 1003.5 |
| 20260505094746 | 21 | 301 | 1.6 | 6.4 | 0.00 | 0.00 | 0.00 | 86 | 1003.3 |
| 20260505094243 | 21 | 341 | 3.2 | 6.4 | 0.00 | 0.00 | 0.00 | 86 | 1003.6 |
| 20260505093739 | 21 | 186 | 6.4 | 14.5 | 0.00 | 0.00 | 0.00 | 86 | 1003.5 |
| 20260505093237 | 21 | 10 | 4.8 | 12.9 | 0.00 | 0.00 | 0.00 | 86 | 1003.7 |
| 20260505092733 | 21 | 216 | 6.4 | 9.7 | 0.00 | 0.00 | 0.00 | 86 | 1003.8 |
| 20260505092232 | 21 | 158 | 1.6 | 16.1 | 0.00 | 0.00 | 0.00 | 86 | 1003.9 |
| 20260505091729 | 21 | 102 | 3.2 | 12.9 | 0.00 | 0.00 | 0.00 | 86 | 1003.8 |
| 20260505091227 | 21 | 103 | 4.8 | 9.7 | 0.00 | 0.00 | 0.00 | 87 | 1003.9 |
| 20260505090724 | 21 | 131 | 1.6 | 9.7 | 0.00 | 0.00 | 0.00 | 87 | 1003.8 |
| 20260505090223 | 21 | 287 | 1.6 | 14.5 | 0.00 | 0.00 | 0.00 | 86 | 1003.8 |
| 20260505085719 | 21 | 225 | 4.8 | 17.7 | 0.00 | 0.00 | 0.00 | 86 | 1004.0 |
| 20260505085218 | 21 | 289 | 1.6 | 11.3 | 0.00 | 0.00 | 0.00 | 86 | 1003.9 |
| 20260505084714 | 21 | 295 | 4.8 | 14.5 | 0.00 | 0.00 | 0.00 | 86 | 1003.7 |
| 20260505084214 | 21 | 139 | 8.0 | 14.5 | 0.00 | 0.00 | 0.00 | 86 | 1003.9 |
| 20260505083710 | 21 | 4 | 1.6 | 12.9 | 0.00 | 0.00 | 0.00 | 85 | 1003.7 |
| 20260505083207 | 21 | 277 | 1.6 | 11.3 | 0.00 | 0.00 | 0.00 | 85 | 1003.9 |
| 20260505082703 | 21 | 292 | 3.2 | 9.7 | 0.00 | 0.00 | 0.00 | 85 | 1004.0 |
| 20260505082200 | 21 | 309 | 3.2 | 11.3 | 0.00 | 0.00 | 0.00 | 84 | 1003.9 |
| 20260505081656 | 21 | 339 | 3.2 | 11.3 | 0.00 | 0.00 | 0.00 | 84 | 1003.9 |